| time (UTC) | temp C | wind direction | speed KPH | gust KPH | rain 1hr cm | rain 24hr cm | rain mn cm | humidity % | barometer mb |
| 20260509123554 | 7 | 0.0 | 0.0 | 0.00 | 0.00 | 0.00 | 89 | 1022.6 | |
| 20260509122552 | 7 | 0.0 | 0.0 | 0.00 | 0.00 | 0.00 | 88 | 1022.5 | |
| 20260509121550 | 8 | 0.0 | 0.0 | 0.00 | 0.00 | 0.00 | 88 | 1022.5 | |
| 20260509120549 | 8 | 0.0 | 0.0 | 0.00 | 0.00 | 0.00 | 88 | 1022.7 | |
| 20260509115547 | 8 | 0.0 | 0.0 | 0.00 | 0.00 | 0.00 | 88 | 1022.9 | |
| 20260509114546 | 8 | 0.0 | 0.0 | 0.00 | 0.00 | 0.00 | 88 | 1022.7 | |
| 20260509113544 | 8 | 0.0 | 0.0 | 0.00 | 0.00 | 0.00 | 87 | 1022.7 | |
| 20260509112542 | 8 | 0.0 | 0.0 | 0.00 | 0.00 | 0.00 | 87 | 1022.7 | |
| 20260509111540 | 8 | 0.0 | 0.0 | 0.00 | 0.00 | 0.00 | 87 | 1022.7 | |
| 20260509110558 | 8 | 0.0 | 0.0 | 0.00 | 0.00 | 0.00 | 87 | 1022.8 | |
| 20260509105537 | 8 | 0.0 | 0.0 | 0.00 | 0.00 | 0.00 | 86 | 1022.9 | |
| 20260509104555 | 8 | 0.0 | 0.0 | 0.00 | 0.00 | 0.00 | 85 | 1022.9 | |
| 20260509103533 | 9 | 0.0 | 0.0 | 0.00 | 0.00 | 0.00 | 84 | 1022.9 | |
| 20260509102531 | 9 | 0.0 | 0.0 | 0.00 | 0.00 | 0.00 | 84 | 1022.8 | |
| 20260509101530 | 10 | 0.0 | 0.0 | 0.00 | 0.00 | 0.00 | 83 | 1023.1 | |
| 20260509100528 | 10 | 0.0 | 0.0 | 0.00 | 0.00 | 0.00 | 83 | 1023.0 | |
| 20260509095526 | 10 | 0.0 | 0.0 | 0.00 | 0.00 | 0.00 | 83 | 1023.1 | |
| 20260509094525 | 10 | 0.0 | 0.0 | 0.00 | 0.00 | 0.00 | 83 | 1023.2 | |
| 20260509093543 | 10 | 0.0 | 0.0 | 0.00 | 0.00 | 0.00 | 81 | 1023.2 | |
| 20260509092521 | 11 | 251 | 0.0 | 1.6 | 0.00 | 0.00 | 0.00 | 81 | 1023.3 |
| 20260509091540 | 11 | 251 | 0.0 | 1.6 | 0.00 | 0.00 | 0.00 | 81 | 1023.3 |
| 20260509090518 | 11 | 251 | 0.0 | 1.6 | 0.00 | 0.00 | 0.00 | 81 | 1023.4 |
| 20260509085516 | 11 | 244 | 1.6 | 1.6 | 0.00 | 0.00 | 0.00 | 82 | 1023.3 |
| 20260509084614 | 11 | 239 | 3.2 | 6.4 | 0.00 | 0.00 | 0.00 | 82 | 1023.4 |
| 20260509083617 | 11 | 229 | 1.6 | 4.8 | 0.00 | 0.00 | 0.00 | 82 | 1023.5 |
| 20260509082611 | 11 | 237 | 1.6 | 3.2 | 0.00 | 0.00 | 0.00 | 82 | 1023.4 |
| 20260509081609 | 11 | 237 | 1.6 | 3.2 | 0.00 | 0.00 | 0.00 | 82 | 1023.5 |
| 20260509080608 | 11 | 236 | 1.6 | 3.2 | 0.00 | 0.00 | 0.00 | 82 | 1023.4 |
| 20260509075606 | 11 | 225 | 1.6 | 4.8 | 0.00 | 0.00 | 0.00 | 82 | 1023.3 |
| 20260509074604 | 11 | 223 | 1.6 | 1.6 | 0.00 | 0.00 | 0.00 | 82 | 1023.2 |
| 20260509073622 | 11 | 231 | 1.6 | 3.2 | 0.00 | 0.00 | 0.00 | 82 | 1023.3 |
| 20260509072601 | 11 | 216 | 1.6 | 1.6 | 0.00 | 0.00 | 0.00 | 82 | 1023.3 |
| 20260509071559 | 11 | 229 | 1.6 | 3.2 | 0.00 | 0.00 | 0.00 | 82 | 1023.2 |
| 20260509070557 | 11 | 232 | 1.6 | 3.2 | 0.00 | 0.00 | 0.00 | 82 | 1023.2 |
| 20260509065555 | 10 | 235 | 0.0 | 1.6 | 0.00 | 0.00 | 0.00 | 81 | 1023.3 |
| 20260509064634 | 11 | 0.0 | 0.0 | 0.00 | 0.00 | 0.00 | 81 | 1023.2 | |
| 20260509063551 | 11 | 209 | 0.0 | 1.6 | 0.00 | 0.00 | 0.00 | 81 | 1023.2 |
| 20260509062550 | 11 | 216 | 0.0 | 1.6 | 0.00 | 0.00 | 0.00 | 81 | 1023.2 |
| 20260509061548 | 11 | 0.0 | 0.0 | 0.00 | 0.00 | 0.00 | 80 | 1023.1 | |
| 20260509060546 | 11 | 213 | 1.6 | 3.2 | 0.00 | 0.00 | 0.00 | 80 | 1023.0 |
| 20260509055545 | 11 | 237 | 1.6 | 3.2 | 0.00 | 0.00 | 0.00 | 79 | 1023.0 |
| 20260509054543 | 11 | 224 | 1.6 | 3.2 | 0.00 | 0.00 | 0.00 | 79 | 1022.9 |
| 20260509053542 | 11 | 228 | 3.2 | 4.8 | 0.00 | 0.00 | 0.00 | 78 | 1022.8 |
| 20260509052539 | 11 | 218 | 3.2 | 4.8 | 0.00 | 0.00 | 0.00 | 77 | 1022.9 |
| 20260509051538 | 11 | 232 | 3.2 | 6.4 | 0.00 | 0.00 | 0.00 | 76 | 1022.8 |
| 20260509050536 | 11 | 238 | 3.2 | 6.4 | 0.00 | 0.00 | 0.00 | 75 | 1022.8 |
| 20260509045534 | 11 | 244 | 3.2 | 4.8 | 0.00 | 0.00 | 0.00 | 75 | 1022.8 |
| 20260509044533 | 12 | 242 | 3.2 | 4.8 | 0.00 | 0.00 | 0.00 | 75 | 1022.8 |
| 20260509043531 | 12 | 236 | 4.8 | 9.7 | 0.00 | 0.00 | 0.00 | 74 | 1022.8 |
| 20260509042529 | 12 | 240 | 4.8 | 9.7 | 0.00 | 0.00 | 0.00 | 73 | 1022.8 |
| 20260509041547 | 12 | 251 | 3.2 | 9.7 | 0.00 | 0.00 | 0.00 | 72 | 1022.6 |
| 20260509040526 | 12 | 238 | 3.2 | 9.7 | 0.00 | 0.00 | 0.00 | 72 | 1022.5 |
| 20260509035524 | 12 | 262 | 3.2 | 11.3 | 0.00 | 0.00 | 0.00 | 71 | 1022.4 |
| 20260509034523 | 13 | 259 | 4.8 | 11.3 | 0.00 | 0.00 | 0.00 | 70 | 1022.3 |
| 20260509033521 | 13 | 257 | 3.2 | 9.7 | 0.00 | 0.00 | 0.00 | 69 | 1022.2 |
| 20260509032519 | 13 | 246 | 1.6 | 4.8 | 0.00 | 0.00 | 0.00 | 67 | 1022.2 |
| 20260509031517 | 14 | 244 | 1.6 | 4.8 | 0.00 | 0.00 | 0.00 | 66 | 1022.1 |
| 20260509030515 | 14 | 252 | 4.8 | 11.3 | 0.00 | 0.00 | 0.00 | 64 | 1022.2 |
| 20260509025614 | 15 | 249 | 3.2 | 6.4 | 0.00 | 0.00 | 0.00 | 63 | 1022.0 |
| 20260509024653 | 15 | 265 | 3.2 | 11.3 | 0.00 | 0.00 | 0.00 | 63 | 1021.8 |
| 20260509023613 | 15 | 260 | 4.8 | 11.3 | 0.00 | 0.00 | 0.00 | 62 | 1021.7 |
| 20260509022709 | 16 | 270 | 3.2 | 6.4 | 0.00 | 0.00 | 0.00 | 61 | 1021.8 |
| 20260509021607 | 16 | 284 | 6.4 | 16.1 | 0.00 | 0.00 | 0.00 | 60 | 1021.6 |
| 20260509020605 | 16 | 264 | 1.6 | 9.7 | 0.00 | 0.00 | 0.00 | 60 | 1021.6 |
| 20260509015606 | 16 | 268 | 4.8 | 6.4 | 0.00 | 0.00 | 0.00 | 59 | 1021.7 |
| 20260509014622 | 16 | 279 | 4.8 | 12.9 | 0.00 | 0.00 | 0.00 | 58 | 1021.7 |
| 20260509013600 | 17 | 260 | 4.8 | 12.9 | 0.00 | 0.00 | 0.00 | 56 | 1021.7 |
| 20260509012559 | 17 | 261 | 3.2 | 9.7 | 0.00 | 0.00 | 0.00 | 55 | 1021.6 |
| 20260509011557 | 17 | 225 | 3.2 | 6.4 | 0.00 | 0.00 | 0.00 | 55 | 1021.6 |
| 20260509010555 | 17 | 249 | 4.8 | 9.7 | 0.00 | 0.00 | 0.00 | 55 | 1021.7 |
| 20260509005553 | 17 | 262 | 4.8 | 12.9 | 0.00 | 0.00 | 0.00 | 54 | 1021.9 |
| 20260509004552 | 17 | 243 | 6.4 | 16.1 | 0.00 | 0.00 | 0.00 | 54 | 1021.7 |
| 20260509003550 | 17 | 247 | 4.8 | 12.9 | 0.00 | 0.00 | 0.00 | 54 | 1021.8 |
| 20260509002548 | 17 | 240 | 11.3 | 17.7 | 0.00 | 0.00 | 0.00 | 54 | 1021.7 |
| 20260509001547 | 17 | 260 | 6.4 | 12.9 | 0.00 | 0.00 | 0.00 | 53 | 1021.7 |
| 20260509000545 | 18 | 288 | 6.4 | 17.7 | 0.00 | 0.00 | 0.00 | 52 | 1021.6 |
| 20260508235543 | 18 | 254 | 6.4 | 11.3 | 0.00 | 0.00 | 0.00 | 53 | 1021.6 |
| 20260508234542 | 17 | 274 | 3.2 | 9.7 | 0.00 | 0.00 | 0.00 | 52 | 1021.6 |
| 20260508233620 | 17 | 260 | 6.4 | 12.9 | 0.00 | 0.00 | 0.00 | 52 | 1021.6 |
| 20260508232538 | 18 | 242 | 6.4 | 16.1 | 0.00 | 0.00 | 0.00 | 53 | 1021.6 |
| 20260508231536 | 17 | 253 | 9.7 | 17.7 | 0.00 | 0.00 | 0.00 | 53 | 1021.5 |
| 20260508230535 | 18 | 245 | 6.4 | 14.5 | 0.00 | 0.00 | 0.00 | 52 | 1021.6 |
| 20260508225535 | 18 | 267 | 3.2 | 9.7 | 0.00 | 0.00 | 0.00 | 52 | 1021.6 |
| 20260508224531 | 18 | 251 | 8.0 | 12.9 | 0.00 | 0.00 | 0.00 | 51 | 1021.6 |
| 20260508223529 | 19 | 258 | 4.8 | 11.3 | 0.00 | 0.00 | 0.00 | 50 | 1021.6 |
| 20260508222528 | 18 | 223 | 8.0 | 16.1 | 0.00 | 0.00 | 0.00 | 50 | 1021.7 |
| 20260508221526 | 18 | 212 | 6.4 | 14.5 | 0.00 | 0.00 | 0.00 | 50 | 1021.5 |
| 20260508220525 | 18 | 188 | 9.7 | 14.5 | 0.00 | 0.00 | 0.00 | 51 | 1021.5 |
| 20260508215523 | 18 | 256 | 6.4 | 12.9 | 0.00 | 0.00 | 0.00 | 50 | 1021.6 |
| 20260508214541 | 18 | 236 | 6.4 | 12.9 | 0.00 | 0.00 | 0.00 | 49 | 1021.7 |
| 20260508213519 | 18 | 218 | 8.0 | 24.1 | 0.00 | 0.00 | 0.00 | 49 | 1021.8 |
| 20260508212517 | 19 | 228 | 11.3 | 20.9 | 0.00 | 0.00 | 0.00 | 48 | 1021.8 |
| 20260508211516 | 19 | 232 | 6.4 | 20.9 | 0.00 | 0.00 | 0.00 | 50 | 1021.7 |
| 20260508210634 | 20 | 241 | 6.4 | 11.3 | 0.00 | 0.00 | 0.00 | 50 | 1021.7 |
| 20260508205633 | 19 | 226 | 8.0 | 12.9 | 0.00 | 0.00 | 0.00 | 50 | 1021.6 |
| 20260508204611 | 18 | 201 | 6.4 | 14.5 | 0.00 | 0.00 | 0.00 | 52 | 1021.5 |
| 20260508203629 | 18 | 223 | 9.7 | 22.5 | 0.00 | 0.00 | 0.00 | 51 | 1021.5 |
| 20260508202627 | 18 | 229 | 9.7 | 20.9 | 0.00 | 0.00 | 0.00 | 52 | 1021.4 |
| 20260508201606 | 18 | 226 | 6.4 | 11.3 | 0.00 | 0.00 | 0.00 | 53 | 1021.6 |
| 20260508200604 | 18 | 244 | 8.0 | 20.9 | 0.00 | 0.00 | 0.00 | 52 | 1021.5 |
| 20260508195602 | 18 | 201 | 8.0 | 12.9 | 0.00 | 0.00 | 0.00 | 53 | 1021.5 |
| 20260508194600 | 18 | 256 | 8.0 | 14.5 | 0.00 | 0.00 | 0.00 | 52 | 1021.4 |
| 20260508193600 | 18 | 232 | 9.7 | 20.9 | 0.00 | 0.00 | 0.00 | 52 | 1021.4 |
| 20260508192557 | 17 | 240 | 8.0 | 14.5 | 0.00 | 0.00 | 0.00 | 54 | 1021.5 |
| 20260508191555 | 17 | 226 | 8.0 | 16.1 | 0.00 | 0.00 | 0.00 | 55 | 1021.4 |
| 20260508190614 | 16 | 201 | 9.7 | 17.7 | 0.00 | 0.00 | 0.00 | 55 | 1021.6 |
| 20260508185552 | 16 | 232 | 9.7 | 24.1 | 0.00 | 0.00 | 0.00 | 56 | 1021.5 |
| 20260508184550 | 16 | 232 | 6.4 | 16.1 | 0.00 | 0.00 | 0.00 | 57 | 1021.5 |
| 20260508183548 | 16 | 228 | 9.7 | 20.9 | 0.00 | 0.00 | 0.00 | 58 | 1021.4 |
| 20260508182607 | 15 | 234 | 8.0 | 17.7 | 0.00 | 0.00 | 0.00 | 61 | 1021.5 |
| 20260508181545 | 15 | 234 | 11.3 | 20.9 | 0.00 | 0.00 | 0.00 | 59 | 1021.4 |
| 20260508175542 | 15 | 216 | 8.0 | 17.7 | 0.00 | 0.00 | 0.00 | 59 | 1020.9 |
| 20260508174540 | 15 | 225 | 9.7 | 16.1 | 0.00 | 0.00 | 0.00 | 58 | 1020.7 |
| 20260508173538 | 15 | 233 | 14.5 | 30.6 | 0.00 | 0.00 | 0.00 | 60 | 1020.7 |
| 20260508172617 | 15 | 244 | 14.5 | 29.0 | 0.00 | 0.00 | 0.00 | 60 | 1020.5 |
| 20260508171535 | 15 | 235 | 11.3 | 20.9 | 0.00 | 0.00 | 0.00 | 62 | 1020.5 |
| 20260508170533 | 15 | 256 | 9.7 | 17.7 | 0.00 | 0.00 | 0.00 | 61 | 1020.2 |
| 20260508165531 | 14 | 229 | 6.4 | 14.5 | 0.00 | 0.00 | 0.00 | 67 | 1020.2 |
| 20260508164529 | 13 | 249 | 8.0 | 20.9 | 0.00 | 0.00 | 0.00 | 66 | 1020.1 |
| 20260508163548 | 13 | 232 | 4.8 | 12.9 | 0.00 | 0.00 | 0.00 | 66 | 1020.1 |
| 20260508162526 | 14 | 230 | 4.8 | 11.3 | 0.00 | 0.00 | 0.00 | 64 | 1020.0 |
| 20260508161605 | 14 | 226 | 8.0 | 14.5 | 0.00 | 0.00 | 0.00 | 65 | 1019.8 |
| 20260508160523 | 14 | 171 | 3.2 | 11.3 | 0.00 | 0.00 | 0.00 | 66 | 1019.8 |
| 20260508155541 | 14 | 225 | 3.2 | 6.4 | 0.00 | 0.00 | 0.00 | 66 | 1019.7 |
| 20260508154520 | 14 | 223 | 4.8 | 11.3 | 0.00 | 0.00 | 0.00 | 66 | 1019.9 |
| 20260508153518 | 14 | 222 | 4.8 | 12.9 | 0.00 | 0.00 | 0.00 | 67 | 1019.9 |
| 20260508152516 | 14 | 219 | 4.8 | 12.9 | 0.00 | 0.00 | 0.00 | 66 | 1019.9 |
| 20260508151634 | 15 | 206 | 4.8 | 16.1 | 0.00 | 0.00 | 0.00 | 67 | 1019.9 |
| 20260508150613 | 15 | 227 | 3.2 | 12.9 | 0.00 | 0.00 | 0.00 | 67 | 1020.0 |
| 20260508145611 | 15 | 219 | 4.8 | 6.4 | 0.00 | 0.00 | 0.00 | 70 | 1020.0 |
| 20260508144609 | 13 | 224 | 6.4 | 17.7 | 0.00 | 0.00 | 0.00 | 78 | 1019.8 |
| 20260508143628 | 10 | 207 | 4.8 | 11.3 | 0.00 | 0.00 | 0.00 | 83 | 1019.7 |
| 20260508142606 | 9 | 233 | 1.6 | 9.7 | 0.00 | 0.00 | 0.00 | 84 | 1019.6 |
| 20260508141604 | 9 | 184 | 1.6 | 3.2 | 0.00 | 0.00 | 0.00 | 84 | 1019.4 |
| 20260508140602 | 9 | 192 | 3.2 | 9.7 | 0.00 | 0.00 | 0.00 | 85 | 1019.3 |
| 20260508135600 | 8 | 187 | 1.6 | 4.8 | 0.00 | 0.00 | 0.00 | 85 | 1019.2 |
| 20260508134619 | 8 | 237 | 1.6 | 4.8 | 0.00 | 0.00 | 0.00 | 85 | 1019.0 |
| 20260508133557 | 8 | 227 | 1.6 | 6.4 | 0.00 | 0.00 | 0.00 | 85 | 1018.8 |
| 20260508132555 | 8 | 219 | 3.2 | 6.4 | 0.00 | 0.00 | 0.00 | 85 | 1018.7 |
| 20260508131554 | 8 | 231 | 1.6 | 4.8 | 0.00 | 0.00 | 0.00 | 85 | 1018.4 |
| 20260508130552 | 8 | 231 | 1.6 | 4.8 | 0.00 | 0.00 | 0.00 | 85 | 1018.3 |
| 20260508125551 | 8 | 235 | 3.2 | 6.4 | 0.00 | 0.00 | 0.00 | 85 | 1018.4 |
| 20260508124549 | 8 | 217 | 3.2 | 6.4 | 0.00 | 0.00 | 0.00 | 85 | 1018.1 |